Radiation Dose at Monitoring Post of Fukushima Daini Nuclear Power Station
Date,Time,MP-1(microSv/h),MP-2(microSv/h),MP-3(microSv/h),MP-4(microSv/h),MP-5(microSv/h),MP-6(microSv/h),MP-7(microSv/h),Wind Direction,Wind Velocity(m/s),Rain
2021/06/03,00:00,0.168,0.154,0.245,0.236,0.235,0.131,0.082,south-southwest,5.3,No
2021/06/03,00:10,0.168,0.153,0.245,0.239,0.236,0.132,0.082,south-southwest,5.9,No
2021/06/03,00:20,0.169,0.155,0.245,0.236,0.235,0.131,0.082,south-southwest,4.6,No
2021/06/03,00:30,0.169,0.153,0.245,0.238,0.236,0.132,0.081,south-southwest,4.6,No
2021/06/03,00:40,0.167,0.154,0.245,0.236,0.234,0.132,0.081,south-southwest,5.3,No
2021/06/03,00:50,0.169,0.154,0.244,0.238,0.238,0.131,0.081,south-southwest,5.2,No
2021/06/03,01:00,0.168,0.154,0.246,0.236,0.233,0.132,0.082,south-southwest,4.5,No
2021/06/03,01:10,0.170,0.154,0.246,0.239,0.235,0.133,0.082,south-southwest,4.7,No
2021/06/03,01:20,0.168,0.154,0.244,0.237,0.233,0.132,0.081,south-southwest,4.8,No
2021/06/03,01:30,0.168,0.153,0.245,0.238,0.235,0.132,0.081,south-southwest,4.0,No
2021/06/03,01:40,0.168,0.153,0.245,0.236,0.233,0.132,0.082,south,4.0,No
2021/06/03,01:50,0.169,0.154,0.245,0.238,0.235,0.132,0.083,south,4.4,No
2021/06/03,02:00,0.167,0.153,0.244,0.237,0.235,0.132,0.082,south,4.4,No
2021/06/03,02:10,0.169,0.154,0.248,0.239,0.236,0.132,0.082,south,4.6,No
2021/06/03,02:20,0.169,0.153,0.244,0.237,0.235,0.132,0.082,south-southwest,4.0,No
2021/06/03,02:30,0.170,0.153,0.246,0.239,0.235,0.133,0.082,south-southwest,4.3,No
2021/06/03,02:40,0.170,0.153,0.244,0.237,0.236,0.132,0.081,south,5.8,No
2021/06/03,02:50,0.169,0.154,0.246,0.239,0.235,0.132,0.081,south-southwest,6.0,No
2021/06/03,03:00,0.168,0.154,0.243,0.236,0.236,0.131,0.082,south,6.9,No
2021/06/03,03:10,0.169,0.153,0.245,0.239,0.235,0.131,0.081,south-southwest,6.4,No
2021/06/03,03:20,0.169,0.153,0.243,0.237,0.235,0.133,0.081,south-southwest,6.1,No
2021/06/03,03:30,0.168,0.153,0.245,0.237,0.234,0.131,0.082,south,5.9,No
2021/06/03,03:40,0.168,0.155,0.245,0.237,0.237,0.133,0.082,south-southwest,5.7,No
2021/06/03,03:50,0.169,0.154,0.244,0.238,0.235,0.131,0.082,south,4.8,No
2021/06/03,04:00,0.169,0.154,0.244,0.237,0.237,0.132,0.082,south-southwest,6.1,No
2021/06/03,04:10,0.169,0.154,0.244,0.238,0.234,0.132,0.081,south-southwest,4.8,No
2021/06/03,04:20,0.168,0.154,0.245,0.236,0.236,0.132,0.082,south-southwest,5.5,No
2021/06/03,04:30,0.169,0.154,0.243,0.238,0.234,0.132,0.082,south-southwest,4.7,No
2021/06/03,04:40,0.168,0.153,0.246,0.238,0.236,0.132,0.082,south-southwest,4.1,No
2021/06/03,04:50,0.168,0.154,0.243,0.238,0.234,0.132,0.082,south-southwest,3.7,No
2021/06/03,05:00,0.169,0.154,0.246,0.237,0.236,0.131,0.082,south-southwest,4.2,No
2021/06/03,05:10,0.170,0.154,0.243,0.237,0.234,0.131,0.082,south-southwest,4.3,No
2021/06/03,05:20,0.168,0.154,0.245,0.238,0.236,0.131,0.082,south-southwest,4.8,No
2021/06/03,05:30,0.170,0.155,0.245,0.237,0.234,0.133,0.082,south-southwest,5.6,No
2021/06/03,05:40,0.169,0.154,0.244,0.238,0.236,0.132,0.082,south-southwest,5.1,No
2021/06/03,05:50,0.169,0.154,0.243,0.236,0.233,0.133,0.081,south,4.4,No
2021/06/03,06:00,0.169,0.152,0.245,0.239,0.235,0.132,0.082,south,3.9,No
2021/06/03,06:10,0.168,0.154,0.243,0.235,0.236,0.131,0.081,south,4.1,No
2021/06/03,06:20,0.169,0.153,0.245,0.237,0.233,0.132,0.081,south,3.5,No
2021/06/03,06:30,0.168,0.152,0.244,0.237,0.234,0.132,0.082,south,3.5,No
2021/06/03,06:40,0.169,0.153,0.244,0.235,0.235,0.132,0.081,south,4.8,No
2021/06/03,06:50,0.168,0.153,0.243,0.237,0.234,0.132,0.081,south,4.2,No
2021/06/03,07:00,0.169,0.153,0.245,0.237,0.236,0.131,0.081,south,6.1,No
2021/06/03,07:10,0.168,0.153,0.244,0.235,0.235,0.131,0.080,south,6.9,No
2021/06/03,07:20,0.169,0.151,0.243,0.238,0.232,0.132,0.081,south,7.4,No
2021/06/03,07:30,0.169,0.153,0.240,0.236,0.236,0.131,0.081,south,6.9,No
2021/06/03,07:40,0.166,0.153,0.242,0.235,0.234,0.131,0.081,south-southeast,6.8,No
2021/06/03,07:50,0.168,0.154,0.242,0.235,0.232,0.132,0.081,south,8.1,No
2021/06/03,08:00,0.170,0.153,0.241,0.238,0.234,0.131,0.080,south,8.3,No
2021/06/03,08:10,0.168,0.152,0.242,0.237,0.236,0.130,0.081,south,8.3,No
2021/06/03,08:20,0.168,0.152,0.242,0.235,0.236,0.131,0.081,south-southeast,9.5,No
2021/06/03,08:30,0.169,0.152,0.242,0.234,0.232,0.131,0.081,south-southeast,8.9,No
2021/06/03,08:40,0.169,0.154,0.242,0.233,0.231,0.131,0.081,south-southeast,8.8,No
2021/06/03,08:50,0.167,0.154,0.242,0.236,0.235,0.131,0.081,south-southeast,8.2,No
2021/06/03,09:00,0.166,0.153,0.243,0.237,0.236,0.132,0.081,south,10.1,No
2021/06/03,09:10,0.166,0.152,0.244,0.237,0.234,0.131,0.080,south-southeast,9.3,No
2021/06/03,09:20,0.167,0.152,0.243,0.235,0.233,0.130,0.081,south-southeast,10.0,No
2021/06/03,09:30,0.168,0.152,0.243,0.235,0.233,0.131,0.081,south-southeast,10.7,No
2021/06/03,09:40,0.168,0.152,0.244,0.235,0.232,0.131,0.082,south-southeast,9.6,No
2021/06/03,09:50,0.168,0.152,0.245,0.234,0.235,0.132,0.082,south-southeast,10.9,No
2021/06/03,10:00,0.166,0.154,0.242,0.234,0.235,0.131,0.081,south-southeast,9.5,No
2021/06/03,10:10,0.167,0.154,0.243,0.236,0.236,0.131,0.081,south-southeast,9.8,No
2021/06/03,10:20,0.167,0.153,0.243,0.239,0.233,0.131,0.080,south-southeast,9.5,No
2021/06/03,10:30,0.165,0.153,0.243,0.238,0.232,0.132,0.080,south,9.3,No
2021/06/03,10:40,0.168,0.153,0.244,0.236,0.233,0.132,0.081,south-southeast,11.2,No
2021/06/03,10:50,0.170,0.153,0.244,0.235,0.236,0.132,0.081,south-southeast,11.5,No
2021/06/03,11:00,0.169,0.153,0.244,0.236,0.235,0.132,0.081,south-southeast,10.7,No
2021/06/03,11:10,0.168,0.155,0.247,0.235,0.234,0.131,0.080,south-southeast,10.6,No
2021/06/03,11:20,0.167,0.153,0.247,0.239,0.233,0.131,0.080,south-southeast,11.7,No
2021/06/03,11:30,0.168,0.153,0.245,0.238,0.232,0.132,0.081,south-southeast,11.5,No
2021/06/03,11:40,0.166,0.153,0.244,0.236,0.234,0.131,0.081,south-southeast,9.5,No
2021/06/03,11:50,0.167,0.152,0.244,0.235,0.237,0.131,0.081,south-southeast,8.7,No
2021/06/03,12:00,0.166,0.152,0.243,0.234,0.235,0.130,0.081,south-southeast,8.5,No
2021/06/03,12:10,0.166,0.154,0.242,0.239,0.233,0.131,0.081,south-southeast,9.5,No
2021/06/03,12:20,0.166,0.154,0.242,0.238,0.233,0.132,0.082,south-southeast,10.0,No
2021/06/03,12:30,0.167,0.153,0.244,0.237,0.233,0.132,0.081,south-southeast,9.6,No
2021/06/03,12:40,0.168,0.153,0.246,0.236,0.232,0.131,0.081,south,11.2,No
2021/06/03,12:50,0.168,0.152,0.248,0.236,0.236,0.130,0.081,south-southeast,9.8,No
2021/06/03,13:00,0.169,0.152,0.247,0.235,0.235,0.131,0.080,south-southeast,8.8,No
2021/06/03,13:10,0.168,0.154,0.245,0.240,0.234,0.132,0.081,south-southeast,10.6,No
2021/06/03,13:20,0.168,0.154,0.244,0.238,0.233,0.132,0.081,south-southeast,9.5,No
2021/06/03,13:30,0.167,0.154,0.243,0.236,0.231,0.131,0.081,south-southeast,11.1,No
2021/06/03,13:40,0.168,0.154,0.243,0.236,0.234,0.131,0.081,south-southeast,8.7,No
2021/06/03,13:50,0.167,0.153,0.247,0.235,0.237,0.132,0.081,south,10.0,No
2021/06/03,14:00,0.167,0.153,0.248,0.239,0.236,0.131,0.082,south-southeast,10.1,No
2021/06/03,14:10,0.167,0.154,0.246,0.239,0.235,0.133,0.081,south,10.9,No
2021/06/03,14:20,0.167,0.155,0.245,0.238,0.233,0.133,0.080,south-southeast,10.6,No
2021/06/03,14:30,0.167,0.154,0.244,0.236,0.233,0.132,0.080,south,11.1,No
2021/06/03,14:40,0.167,0.153,0.244,0.237,0.232,0.132,0.081,south,10.0,No
2021/06/03,14:50,0.168,0.152,0.244,0.240,0.233,0.131,0.081,south,9.6,No
2021/06/03,15:00,0.171,0.156,0.248,0.240,0.236,0.131,0.081,south-southeast,10.1,No
2021/06/03,15:10,0.169,0.155,0.246,0.237,0.236,0.132,0.081,south-southeast,10.7,No
2021/06/03,15:20,0.168,0.154,0.245,0.237,0.234,0.131,0.081,south,11.4,No
2021/06/03,15:30,0.168,0.152,0.245,0.239,0.234,0.131,0.082,south,10.9,No
2021/06/03,15:40,0.166,0.154,0.247,0.239,0.234,0.131,0.081,south,10.4,No
2021/06/03,15:50,0.168,0.155,0.248,0.237,0.237,0.132,0.081,south,10.4,No
2021/06/03,16:00,0.170,0.154,0.245,0.238,0.235,0.131,0.081,south,10.7,No
2021/06/03,16:10,0.169,0.154,0.247,0.241,0.234,0.131,0.081,south-southeast,12.5,No
2021/06/03,16:20,0.168,0.155,0.247,0.237,0.234,0.132,0.082,south,11.4,No
2021/06/03,16:30,0.169,0.153,0.246,0.239,0.237,0.132,0.081,south-southeast,10.4,No
2021/06/03,16:40,0.170,0.153,0.247,0.240,0.234,0.132,0.082,south,12.8,No
2021/06/03,16:50,0.169,0.154,0.246,0.238,0.234,0.132,0.081,south,10.1,No
2021/06/03,17:00,0.170,0.155,0.245,0.240,0.237,0.131,0.081,south,9.5,No
2021/06/03,17:10,0.171,0.154,0.248,0.240,0.234,0.132,0.081,south,10.1,No
2021/06/03,17:20,0.168,0.154,0.246,0.238,0.237,0.132,0.081,south,9.5,No
2021/06/03,17:30,0.169,0.155,0.246,0.240,0.236,0.131,0.081,south,10.0,No
2021/06/03,17:40,0.170,0.154,0.246,0.238,0.234,0.133,0.081,south-southeast,8.1,No
2021/06/03,17:50,0.168,0.153,0.245,0.240,0.237,0.132,0.082,south,7.3,No
2021/06/03,18:00,0.170,0.154,0.248,0.239,0.235,0.131,0.081,south,8.3,No
2021/06/03,18:10,0.170,0.153,0.246,0.238,0.233,0.132,0.082,south,8.9,No
2021/06/03,18:20,0.170,0.153,0.246,0.239,0.237,0.132,0.081,south,9.6,No
2021/06/03,18:30,0.170,0.154,0.246,0.238,0.234,0.131,0.082,south,8.4,No
2021/06/03,18:40,0.169,0.154,0.246,0.240,0.237,0.132,0.081,south,8.2,No
2021/06/03,18:50,0.169,0.153,0.246,0.237,0.235,0.131,0.081,south,7.9,No
2021/06/03,19:00,0.168,0.153,0.246,0.240,0.234,0.132,0.081,south,7.9,No
2021/06/03,19:10,0.168,0.154,0.247,0.240,0.236,0.132,0.081,south,7.4,No
2021/06/03,19:20,0.170,0.154,0.246,0.238,0.235,0.132,0.082,south,7.4,No
2021/06/03,19:30,0.169,0.155,0.247,0.240,0.236,0.132,0.082,south-southeast,7.8,No
2021/06/03,19:40,0.168,0.154,0.245,0.238,0.235,0.131,0.082,south,8.1,No
2021/06/03,19:50,0.168,0.154,0.248,0.240,0.237,0.133,0.081,south,7.8,No
2021/06/03,20:00,0.170,0.154,0.245,0.238,0.235,0.131,0.081,south,9.2,No
2021/06/03,20:10,0.170,0.155,0.246,0.240,0.237,0.133,0.080,south,8.7,No
2021/06/03,20:20,0.169,0.153,0.247,0.238,0.235,0.132,0.082,south,8.1,No
2021/06/03,20:30,0.168,0.154,0.247,0.240,0.234,0.132,0.082,south,8.1,No
2021/06/03,20:40,0.168,0.154,0.246,0.239,0.237,0.133,0.082,south,8.2,No
2021/06/03,20:50,0.170,0.155,0.247,0.239,0.234,0.131,0.081,south,8.1,No
2021/06/03,21:00,0.169,0.155,0.245,0.239,0.237,0.132,0.081,south,7.0,No
2021/06/03,21:10,0.170,0.155,0.246,0.238,0.234,0.132,0.081,south,7.1,No
2021/06/03,21:20,0.168,0.155,0.246,0.240,0.236,0.131,0.081,south,7.4,No
2021/06/03,21:30,0.170,0.154,0.245,0.240,0.236,0.133,0.082,south,6.9,No
2021/06/03,21:40,0.170,0.155,0.247,0.239,0.236,0.132,0.081,south,6.6,No
2021/06/03,21:50,0.168,0.153,0.246,0.238,0.236,0.133,0.082,south,7.0,No
2021/06/03,22:00,0.169,0.154,0.248,0.240,0.234,0.131,0.081,south,7.5,No
2021/06/03,22:10,0.168,0.155,0.247,0.239,0.236,0.133,0.081,south,8.1,No
2021/06/03,22:20,0.170,0.155,0.248,0.239,0.234,0.132,0.081,south,10.0,No
2021/06/03,22:30,0.168,0.154,0.245,0.238,0.235,0.131,0.081,south,10.3,No
2021/06/03,22:40,0.168,0.154,0.247,0.239,0.234,0.133,0.081,south,10.7,No
2021/06/03,22:50,0.169,0.153,0.246,0.239,0.236,0.131,0.081,south,11.1,No
2021/06/03,23:00,0.169,0.155,0.247,0.238,0.236,0.132,0.082,south,10.9,No
2021/06/03,23:10,0.170,0.154,0.245,0.240,0.234,0.132,0.081,south,9.8,No
2021/06/03,23:20,0.168,0.154,0.246,0.237,0.236,0.131,0.082,south,10.9,No
2021/06/03,23:30,0.169,0.154,0.247,0.239,0.234,0.132,0.081,south,9.5,No
2021/06/03,23:40,0.169,0.154,0.246,0.237,0.237,0.132,0.081,south,11.2,No
2021/06/03,23:50,0.169,0.154,0.247,0.240,0.234,0.132,0.081,south,10.7,No
